Flag for Germany Weather past 2 weeks in Kassel, Hesse, Germany

Now
59 °F

Scattered clouds.


Feels Like: 57 °F
Forecast: 44 / 68 °F
Wind: 12 mph from Southwest

Location: Kassel / Calden

Current Time: Aug 20, 2014 at 3:31:53 PM

Latest Report: Aug 20, 2014 at 2:50 PM


Visibility: N/A

Pressure: 30.01 "Hg

Humidity: 55%

Dew point: 43 °F

Location of KasselLocation

Historic Weather in Kassel — Graph

°F

Kassel temperature yesterday

Maximum temperature yesterday: 64 °F (at 1:20 PM)
Minimum temperature yesterday: 46 °F (at 6:20 AM)
Average temperature yesterday: 55 °F

Past Weeks' High & Low Weather Summary

 TemperatureHumidityPressure
High79 °F (Aug 8, 3:20 PM)100% (Aug 6, 5:50 AM)30.12 "Hg (Aug 6, 5:50 AM)
Low46 °F (Aug 19, 6:20 AM)40% (Aug 12, 3:50 PM)29.65 "Hg (Aug 13, 3:20 PM)
Average63 °F71%29.88 "Hg
* Reported Aug 5 2:20 PM — Aug 20 2:20 PM, Kassel, Weather by CustomWeather, © 2014

Note: Actual official high and low records may vary slightly from our data, if they occured in-between our weather recording intervals... More about our weather records

Advertising

Kassel weather history for previous 24 hours

 ConditionsComfort  
Time TempWeatherWind HumidityBarometerVisibility
2:20 PM
Aug 20
61 °FScattered clouds.8 mph55%30.01 "HgN/A
1:50 PM61 °FScattered clouds.12 mph52%30.01 "HgN/A
1:20 PM61 °FScattered clouds.12 mph55%30.01 "HgN/A
12:50 PM59 °FScattered clouds.10 mph59%30.01 "HgN/A
12:20 PM59 °FBroken clouds.12 mph63%30.01 "HgN/A
11:50 AM59 °FScattered clouds.10 mph59%30.01 "HgN/A
11:20 AM55 °FScattered clouds.9 mph72%30.01 "HgN/A
10:50 AM55 °FScattered clouds.10 mph72%30.01 "HgN/A
10:20 AM55 °FScattered clouds.13 mph72%30.01 "HgN/A
9:50 AM55 °FPassing clouds.9 mph72%30.01 "HgN/A
9:20 AM54 °FPassing clouds.8 mph77%30.01 "HgN/A
8:50 AM52 °FPassing clouds.5 mph77%30.01 "HgN/A
8:20 AM48 °FSunny.5 mph87%29.98 "Hg10 mi
7:50 AM46 °FPassing clouds.3 mph87%29.98 "HgN/A
7:20 AM46 °FPassing clouds.6 mph87%29.98 "HgN/A
6:50 AM46 °FPassing clouds.7 mph87%29.98 "HgN/A
6:20 AM46 °FPassing clouds.6 mph87%29.98 "HgN/A
5:50 AM46 °FPassing clouds.6 mph87%29.95 "HgN/A
9:50 PM
Aug 19
50 °FPartly cloudy.9 mph82%29.92 "HgN/A
9:20 PM50 °FBroken clouds.10 mph82%29.89 "HgN/A
8:50 PM52 °FBroken clouds.9 mph77%29.89 "HgN/A
8:20 PM54 °FPartly sunny.13 mph82%29.89 "HgN/A
7:50 PM54 °FPartly sunny.9 mph82%29.86 "HgN/A
7:20 PM54 °FPartly sunny.5 mph82%29.86 "HgN/A
6:50 PM54 °FPartly sunny.6 mph82%29.86 "HgN/A
6:20 PM54 °FLight rain. Partly sunny.6 mph82%29.83 "HgN/A
5:50 PM54 °FLight rain. Overcast.7 mph88%29.86 "Hg6 mi
5:20 PM54 °FLight rain. Broken clouds.9 mph94%29.86 "Hg5 mi
4:50 PM54 °FLight rain. Overcast.9 mph94%29.86 "Hg4 mi
4:20 PM55 °FLight rain. Partly sunny.10 mph88%29.83 "Hg5 mi
3:50 PM55 °FLight rain. More clouds than sun.9 mph88%29.83 "Hg5 mi
3:20 PM55 °FLight rain. Partly sunny.17 mph88%29.83 "Hg6 mi
Weather by CustomWeather, © 2014

See weather overviewHow to use our weather pages